Vertical_Velocity
5 4 4 4 4 5 5 5 3 1 -1 -2 -1 -0 1 1 1 1 1 1 1 1 1 1 1 0 0 -0 -0 0 0 0 -0 -1 -1 -2 -1 -1 -1 -1 -1 -1 -1 -1 -1 -1 -1 -1 0 1 2 3 2 2 1 0 -0 -0 -0 -0 -1 -1 -1 -1 -1 -1 -1 -1 -0
4 4 4 3 3 3 3 3 2 0 -1 -2 -1 -1 0 1 1 1 1 1 1 0 -0 -0 -1 -1 -1 -1 -1 -0 -0 -0 -1 -1 -1 -1 -1 -1 -1 -1 -1 -1 -1 -1 -1 -0 -0 1 2 3 3 3 2 2 1 1 0 0 0 0 -0 -0 -1 -1 -1 -1 -0 -0 1
3 2 2 1 1 0 0 0 -0 -1 -2 -2 -2 -1 -1 -0 0 0 0 0 0 -0 -1 -1 -2 -2 -2 -2 -2 -2 -2 -1 -1 -1 -1 -0 -0 -0 -1 -1 -1 -1 -1 -0 -0 0 1 2 2 3 3 2 1 1 0 0 -0 0 0 1 -0 -0 -0 -0 -0 -0 -0 0 1
1 -0 -1 -2 -2 -3 -3 -3 -3 -3 -3 -3 -2 -2 -1 0 0 -0 -0 -0 -0 -1 -1 -2 -3 -3 -4 -4 -4 -4 -4 -3 -2 -2 -2 -2 -1 -1 -1 -1 -1 -1 -1 -0 -0 0 1 1 1 1 1 1 0 -0 -1 -1 -1 -1 -0 1 0 -0 -0 -0 -0 -0 0 0 1
-1 -2 -3 -4 -4 -5 -5 -5 -4 -4 -3 -2 -2 -1 0 1 1 0 -0 -1 -1 -1 -2 -2 -3 -3 -4 -5 -5 -5 -5 -5 -4 -4 -3 -3 -3 -2 -2 -1 -1 -1 -1 -1 -0 -0 -0 -0 0 0 0 0 -0 -1 -1 -1 -1 -1 -0 1 1 1 1 1 1 0 0 0 1
-3 -4 -4 -5 -5 -5 -5 -4 -4 -3 -2 -1 -0 1 2 2 1 -0 -1 -2 -2 -2 -2 -2 -2 -2 -3 -4 -4 -4 -4 -4 -4 -3 -3 -3 -2 -2 -2 -1 -1 -1 -1 -1 -1 -1 -1 -1 -0 0 1 1 -0 -0 -0 -0 -1 -0 1 1 1 1 1 0 1 1 0 -0 1
-3 -4 -4 -4 -4 -4 -4 -3 -2 -1 -1 0 1 2 2 2 1 -0 -1 -2 -3 -3 -2 -2 -1 -1 -1 -1 -1 -1 -1 -1 -0 0 1 1 1 0 -0 -0 -0 -1 -1 -1 -1 -1 -1 -0 0 1 1 1 0 0 0 0 -0 0 1 1 1 1 1 -0 0 0 -0 -1 0
-2 -2 -3 -3 -3 -3 -2 -2 -1 -0 0 1 2 2 2 1 1 0 -0 -1 -2 -2 -2 -1 -1 -0 -0 0 1 1 1 2 2 2 2 2 2 2 1 1 0 0 -0 -0 -0 -0 0 1 1 2 2 2 1 1 1 1 -0 0 1 2 1 1 1 -1 -0 0 -0 -1 -1
-1 -1 -1 -2 -2 -1 -1 -1 -1 0 1 2 3 2 2 1 1 1 0 -0 -1 -1 -1 -1 -0 0 0 1 1 1 2 2 2 2 2 2 1 1 1 1 0 0 0 0 0 1 2 2 2 3 3 3 2 2 1 1 -0 -0 0 1 1 1 1 0 -0 -0 -0 -1 -1
0 -0 -0 -1 -0 -0 -0 -0 -0 1 2 3 3 3 2 1 1 0 -0 -0 -1 -1 -0 0 0 1 1 1 1 1 1 2 2 1 1 1 0 0 -0 -0 -0 -0 0 0 1 1 2 3 3 3 3 4 3 3 2 2 0 -0 -0 0 0 -0 -0 1 -0 -1 -1 -0 -1
0 -0 -0 -0 0 0 0 0 1 1 2 3 3 3 2 1 0 -0 -1 -1 -1 -1 -0 0 1 1 1 1 1 1 1 2 1 1 1 0 -0 -0 -0 -0 -0 -0 -0 -0 -0 1 2 3 3 3 3 3 3 3 2 2 1 0 -0 0 0 -0 -0 0 0 -1 -1 -0 -0
-0 -0 -0 -0 0 0 0 1 1 2 2 2 2 2 1 1 0 -0 -1 -1 -1 -0 0 1 1 1 1 1 1 2 2 2 2 2 1 1 0 -0 -0 -0 -0 -1 -1 -1 -1 -0 0 1 2 2 2 2 2 2 2 2 1 1 0 0 0 -0 -0 0 0 -0 -1 -0 1
-1 -1 -1 -0 -0 0 0 1 1 1 1 2 2 1 1 1 1 0 0 -0 0 0 1 1 1 2 2 2 2 2 2 2 2 2 1 1 1 0 -0 -0 -0 -1 -1 -1 -1 -1 -1 -0 0 0 1 1 2 2 2 2 1 1 0 0 0 0 0 0 0 0 -0 0 1
-1 -1 -1 -1 -1 -0 -0 0 0 1 1 1 1 1 1 1 1 1 1 1 1 1 1 1 1 2 2 2 2 2 2 2 1 1 1 1 1 0 -0 -1 -1 -1 -1 -1 -0 -0 -0 -0 0 -0 -0 0 1 1 1 1 1 1 1 1 0 0 0 0 0 0 0 0 1
-1 -1 -1 -1 -1 -1 -0 -0 -0 0 0 0 0 -0 0 0 1 1 1 1 1 1 1 1 1 1 1 1 1 1 1 1 0 0 -0 -0 -1 -1 -1 -1 -1 -1 -1 -0 1 1 1 2 2 1 1 1 1 1 1 0 0 1 1 1 1 1 1 1 1 1 1 1 1
-1 -0 -0 -0 -0 -0 -0 -0 -0 -0 -0 -0 -0 -0 -0 -0 0 0 1 1 1 1 0 0 0 -0 -0 -0 -0 0 0 0 -0 -0 -1 -1 -1 -2 -2 -2 -1 -1 -0 0 1 2 2 2 3 3 3 2 2 2 1 -0 -0 -0 0 1 1 1 1 1 1 1 0 1 1
-0 -0 -0 0 0 -0 -0 -0 -0 -0 -0 -0 -0 -0 0 0 0 -0 0 1 1 0 -0 -1 -1 -1 -1 -2 -1 -1 -1 -0 -0 -0 -1 -1 -1 -1 -1 -1 -0 -0 1 1 2 2 2 2 2 3 3 3 4 3 2 1 -0 -0 -0 0 1 1 2 2 2 1 1 0 1
-1 -1 -0 -0 -0 -0 -0 -0 -1 -0 -0 -0 -0 0 0 0 0 -0 -1 -0 -0 -1 -1 -1 -2 -2 -2 -2 -2 -2 -1 -1 -0 -0 0 -0 0 0 0 0 1 1 2 2 2 3 3 2 2 2 2 2 3 3 3 2 1 0 -0 0 0 1 1 2 2 1 1 1 1
-1 -1 -1 -1 -1 -1 -1 -1 -1 -0 -0 -0 -0 -0 -0 -0 -0 -1 -1 -2 -2 -2 -2 -2 -2 -2 -2 -2 -2 -2 -2 -1 -0 0 1 1 1 1 1 2 2 2 2 2 2 3 3 2 2 2 1 1 2 2 3 3 2 1 1 1 1 1 1 1 1 1 1 1 1
-2 -2 -2 -2 -2 -2 -1 -1 -1 -1 -1 -1 -1 -1 -1 -1 -1 -1 -2 -2 -2 -2 -2 -2 -2 -2 -2 -2 -1 -1 -1 -0 -0 1 1 2 2 2 2 3 3 3 3 3 3 2 2 2 2 1 1 1 1 2 2 2 2 1 1 1 1 1 1 1 1 1 1 1 2
-2 -2 -2 -3 -2 -2 -2 -2 -2 -2 -2 -2 -2 -2 -2 -2 -2 -2 -2 -2 -2 -2 -2 -1 -1 -1 -1 -0 -0 0 0 1 1 1 2 3 3 3 3 3 3 3 4 4 3 2 2 2 1 1 0 -0 0 1 1 2 1 1 1 0 -0 0 0 0 0 0 1 1 1
-3 -3 -3 -3 -3 -3 -3 -2 -2 -2 -2 -2 -2 -2 -2 -2 -2 -2 -2 -2 -2 -1 -1 -1 -0 -0 0 1 1 2 2 2 2 2 2 3 3 2 2 2 2 3 3 3 2 2 1 1 1 0 -0 -1 -1 -0 0 1 1 1 1 0 -0 -0 -0 -0 -0 -0 0 1 1
-3 -3 -2 -2 -3 -2 -2 -2 -2 -2 -2 -2 -2 -2 -2 -2 -2 -2 -2 -2 -1 -1 -1 -0 0 1 1 2 2 2 3 3 3 2 2 2 2 1 1 1 1 1 2 2 1 1 1 1 0 -0 -1 -2 -2 -1 -1 -0 0 1 1 1 1 -0 -1 -1 -1 -0 0 1 2
-2 -2 -2 -2 -2 -2 -2 -2 -2 -2 -1 -1 -1 -2 -1 -1 -1 -1 -1 -1 -1 -0 -0 0 1 1 1 2 2 2 2 3 2 2 1 0 0 0 0 0 1 1 1 1 1 -0 -0 0 0 -0 -0 -1 -2 -2 -2 -1 -1 -0 1 1 1 1 0 -0 -0 -1 -1 -0 0
-2 -2 -2 -2 -2 -2 -1 -1 -1 -1 -1 -1 -1 -1 -1 -0 -0 -0 -0 -0 -0 -0 0 0 1 1 1 1 1 1 1 1 2 2 1 0 -0 -1 -1 -1 -0 -0 0 0 -0 -1 -1 -1 -1 -0 -0 -0 -1 -2 -2 -2 -2 -2 -1 -0 1 1 1 1 0 -0 -1 -2 -1
-2 -1 -1 -1 -1 -1 -1 -0 -0 -0 -0 -0 -0 -0 -0 0 0 0 1 0 0 0 0 1 1 1 1 1 1 0 0 -0 0 1 1 1 1 0 -1 -1 -1 -1 -1 -0 -1 -1 -1 -2 -2 -2 -1 -1 -0 -0 -1 -2 -2 -2 -2 -2 -0 1 1 1 1 1 0 -1 -2
-1 -1 -1 -1 -0 -0 -0 -0 -0 -0 -0 -0 -0 -0 -0 -0 0 0 0 0 0 0 0 0 1 1 1 1 1 1 0 -0 -0 -0 1 2 2 2 1 0 -1 -1 -1 -1 -1 -2 -2 -2 -3 -3 -3 -3 -2 -1 -0 -1 -1 -1 -1 -2 -1 -0 1 1 2 2 2 1 0
-1 -1 -1 -1 -0 -0 -0 -0 -0 -0 -0 -0 -0 -0 -0 -0 -0 -0 -0 -0 0 0 0 0 0 0 1 1 1 1 0 -0 -0 -0 0 1 2 2 2 2 1 0 -0 -1 -2 -2 -2 -3 -3 -4 -5 -5 -4 -3 -1 -0 -0 -0 -0 -1 -1 -0 1 1 2 3 3 3 3
-1 -1 -1 -1 -1 -1 -0 -0 -0 -0 -0 -0 -0 -0 -0 -1 -1 -0 -0 0 0 0 0 0 0 1 1 0 1 1 1 -0 -0 -0 0 0 1 2 2 2 2 2 1 1 -1 -2 -2 -2 -3 -4 -5 -5 -6 -5 -4 -2 -1 -0 -0 0 0 0 0 0 1 2 2 3 3
-0 -0 -1 -1 -1 -1 -1 -0 -0 -0 -0 -0 -0 -0 -0 -0 -0 -0 0 1 1 1 1 1 1 1 1 0 1 1 1 0 0 0 0 0 1 1 2 2 2 2 2 1 -0 -1 -1 -2 -2 -3 -4 -5 -6 -6 -5 -3 -1 -0 0 0 1 1 0 -0 1 1 1 2 2
-0 -0 -0 -1 -1 -1 -0 -0 -0 -0 -0 -0 0 0 0 0 -0 0 1 1 1 1 1 1 1 1 0 0 1 1 1 1 1 0 -0 0 0 1 2 2 2 1 1 1 -0 -1 -1 -1 -1 -2 -3 -4 -5 -6 -6 -4 -2 -1 0 1 2 1 0 -0 -0 0 1 2 2
0 0 0 0 -0 -0 0 0 0 0 0 0 0 0 0 0 -0 -0 0 1 1 1 0 0 0 -0 -0 -0 0 0 0 0 0 -0 -0 -0 -0 0 1 2 2 1 0 -0 -1 -1 -1 -1 -1 -2 -3 -4 -5 -6 -6 -5 -4 -3 -1 1 2 2 1 -0 -1 -0 0 1 1
1 1 1 1 1 1 1 1 1 1 0 0 -0 0 0 -0 -0 -0 -0 -0 0 1 0 -0 0 -0 -0 -0 -0 -0 -0 0 0 -0 -1 -1 -0 0 1 2 2 2 1 -0 -1 -1 -1 -1 -2 -2 -3 -4 -5 -5 -6 -5 -5 -4 -3 -1 1 2 2 1 -0 -0 -0 -0 -0
1 1 1 1 1 1 1 1 0 0 0 -0 -1 -0 -0 -0 -0 -1 -1 -0 -0 0 -0 -0 0 -0 -0 -0 1 1 0 1 1 0 -0 -1 -0 0 1 2 3 3 2 1 -0 -1 -1 -1 -1 -2 -2 -3 -4 -4 -4 -4 -4 -4 -4 -2 -1 1 2 1 1 0 -0 -0 -0
1 0 -0 -0 -0 -0 -0 -0 -0 -0 -0 -1 -1 -1 -1 -1 -1 -1 -1 -0 0 0 -0 -0 -0 -0 -0 -0 1 1 1 1 2 2 1 0 -0 0 1 3 4 4 4 2 -0 -0 -0 -0 -1 -1 -2 -2 -3 -2 -2 -2 -3 -3 -2 -2 -1 0 1 2 1 1 1 1 0
0 -0 -1 -1 -1 -1 -1 -1 -1 -1 -1 -1 -1 -1 -1 -1 -1 -1 -1 0 1 1 1 0 0 -0 -0 -0 -0 1 1 2 1 1 1 2 1 1 1 3 5 6 5 3 1 -0 -0 -0 -0 -1 -1 -2 -3 -2 -1 -1 -1 -1 -0 -0 -0 1 2 2 1 1 1 1 1
-0 -0 -0 -1 -1 -1 -1 -0 -0 -0 -0 -0 -0 -0 0 0 -0 -1 -1 1 1 1 1 2 2 1 -0 0 0 1 1 1 1 0 0 1 1 1 1 2 5 7 7 4 1 -0 -0 -0 -1 -1 -2 -3 -3 -3 -2 -1 -1 -0 0 1 1 2 2 2 1 1 1 2 1
-0 0 0 0 -0 -0 0 0 0 0 1 1 1 1 1 1 1 -0 -0 0 1 1 1 2 2 1 0 0 1 1 1 1 0 -1 -1 -1 -0 0 1 1 4 6 8 6 3 1 -0 -1 -1 -2 -2 -3 -5 -4 -3 -2 -2 -1 -0 1 1 2 2 2 1 1 1 2 2
1 1 1 1 1 1 1 1 1 1 1 1 1 1 1 1 1 0 -0 -0 0 0 0 1 1 1 1 0 0 1 1 1 1 -1 -2 -3 -3 -1 -0 0 2 5 7 7 4 2 -0 -1 -1 -2 -3 -4 -5 -6 -5 -4 -4 -3 -1 1 1 1 1 2 1 0 -0 2 4
1 1 1 1 1 1 1 1 1 1 1 1 1 1 1 1 1 -0 -0 -0 -1 -1 -1 -0 0 1 1 0 1 1 1 2 2 1 -1 -4 -4 -2 -1 -0 0 3 5 7 5 3 1 0 -1 -1 -2 -4 -6 -6 -6 -6 -5 -4 -2 0 1 0 -0 0 2 1 0 1 4
1 1 1 0 0 1 1 1 1 1 1 1 1 0 0 1 1 1 1 1 -0 -1 -0 -0 -0 1 1 1 1 1 2 3 4 3 2 -0 -2 -2 -1 -0 -0 1 3 6 6 5 3 2 1 0 -1 -2 -5 -6 -7 -6 -6 -5 -4 -0 -0 -1 -2 -2 -0 1 1 1 3
Height
5717 5718 5718 5719 5720 5720 5721 5722 5723 5724 5725 5725 5726 5726 5726 5727 5727 5727 5728 5728 5729 5729 5729 5730 5730 5730 5731 5731 5730 5730 5730 5729 5729 5729 5728 5728 5728 5728 5728 5728 5727 5727 5727 5727 5727 5727 5728 5728 5728 5729 5729 5729 5729 5728 5728 5728 5727 5727 5727 5727 5726 5726 5726 5727 5727 5727 5727 5727 5727
5716 5716 5717 5717 5718 5719 5719 5720 5721 5722 5722 5723 5723 5724 5724 5724 5725 5725 5725 5726 5726 5726 5727 5727 5728 5728 5728 5728 5728 5728 5727 5727 5726 5726 5726 5726 5725 5725 5725 5725 5725 5725 5725 5725 5725 5725 5725 5725 5726 5726 5725 5725 5725 5724 5724 5723 5723 5723 5723 5723 5723 5723 5723 5723 5723 5723 5723 5723 5723
5714 5715 5716 5716 5716 5717 5718 5719 5719 5720 5720 5721 5721 5721 5721 5722 5722 5722 5723 5723 5723 5724 5724 5725 5725 5725 5725 5725 5725 5725 5725 5724 5724 5724 5723 5723 5723 5722 5722 5722 5722 5722 5722 5722 5722 5722 5722 5722 5722 5722 5721 5721 5721 5720 5720 5719 5719 5720 5719 5719 5719 5719 5719 5719 5719 5719 5719 5719 5719
5713 5714 5714 5715 5715 5716 5716 5717 5717 5717 5718 5718 5718 5719 5719 5719 5720 5720 5721 5721 5721 5721 5721 5721 5722 5722 5722 5722 5722 5722 5722 5721 5721 5721 5721 5720 5720 5720 5719 5719 5719 5719 5719 5718 5718 5718 5718 5718 5718 5717 5717 5717 5716 5716 5716 5716 5716 5716 5716 5716 5716 5716 5716 5715 5715 5715 5715 5715 5715
5712 5713 5713 5713 5714 5714 5715 5715 5715 5716 5716 5716 5716 5717 5717 5717 5718 5718 5718 5719 5719 5719 5719 5719 5719 5719 5719 5719 5719 5719 5719 5718 5718 5718 5717 5717 5716 5716 5716 5716 5716 5715 5715 5715 5715 5714 5714 5714 5713 5713 5713 5713 5713 5712 5712 5712 5712 5712 5712 5712 5712 5712 5712 5711 5711 5711 5711 5711 5711
5711 5711 5712 5712 5712 5713 5713 5713 5714 5714 5714 5715 5715 5715 5715 5716 5716 5716 5716 5717 5717 5717 5716 5716 5716 5716 5716 5716 5716 5716 5716 5715 5715 5715 5714 5714 5713 5713 5713 5712 5712 5712 5711 5711 5711 5710 5710 5710 5710 5709 5709 5709 5709 5709 5709 5709 5709 5709 5709 5709 5708 5708 5708 5708 5707 5707 5707 5707 5707
5710 5710 5711 5711 5711 5711 5712 5712 5712 5712 5713 5713 5713 5713 5714 5714 5714 5714 5714 5715 5715 5715 5714 5714 5714 5714 5713 5713 5713 5713 5713 5712 5712 5712 5711 5711 5711 5710 5710 5710 5709 5709 5708 5708 5707 5707 5706 5706 5706 5706 5706 5706 5706 5705 5705 5705 5705 5705 5705 5705 5705 5705 5705 5704 5703 5703 5703 5703 5703
5708 5709 5710 5710 5710 5710 5711 5711 5711 5711 5711 5711 5711 5711 5712 5712 5712 5712 5712 5712 5712 5712 5712 5712 5712 5711 5711 5711 5711 5711 5710 5710 5710 5709 5709 5709 5709 5708 5708 5707 5707 5706 5706 5705 5705 5704 5703 5703 5703 5702 5702 5702 5702 5701 5701 5701 5701 5701 5701 5701 5701 5701 5701 5700 5700 5699 5699 5699 5699
5707 5707 5708 5708 5709 5709 5709 5709 5709 5709 5709 5709 5709 5710 5710 5710 5710 5710 5710 5710 5710 5710 5710 5710 5709 5709 5709 5708 5708 5708 5708 5707 5707 5707 5707 5706 5706 5706 5705 5705 5704 5704 5703 5702 5702 5701 5701 5700 5700 5700 5699 5699 5699 5698 5698 5698 5698 5698 5698 5697 5697 5697 5696 5696 5696 5696 5696 5695 5695
5706 5706 5706 5707 5707 5707 5707 5707 5707 5707 5707 5707 5707 5707 5708 5708 5708 5708 5708 5708 5708 5707 5707 5707 5707 5706 5706 5706 5706 5705 5705 5705 5705 5704 5704 5704 5703 5703 5702 5701 5701 5700 5700 5699 5698 5698 5698 5697 5697 5696 5696 5696 5696 5695 5695 5694 5694 5694 5694 5694 5694 5693 5693 5692 5692 5692 5691 5691 5691
5704 5704 5705 5705 5705 5706 5706 5706 5706 5706 5706 5705 5705 5705 5706 5706 5706 5706 5706 5705 5705 5705 5705 5704 5704 5703 5703 5703 5702 5702 5702 5702 5701 5701 5701 5700 5700 5699 5698 5698 5697 5696 5696 5695 5695 5695 5694 5694 5694 5694 5693 5693 5692 5692 5691 5691 5691 5691 5691 5690 5690 5690 5689 5688 5688 5688 5687 5687 5686
5702 5703 5703 5703 5703 5704 5704 5704 5704 5704 5703 5703 5703 5703 5703 5703 5703 5703 5703 5703 5702 5702 5702 5701 5701 5700 5700 5700 5699 5699 5699 5698 5698 5697 5697 5696 5696 5695 5695 5694 5693 5693 5692 5691 5691 5691 5691 5691 5690 5690 5690 5689 5689 5689 5688 5688 5687 5687 5687 5686 5686 5686 5685 5685 5684 5683 5683 5682 5682
5701 5701 5701 5701 5701 5702 5702 5702 5701 5701 5701 5701 5701 5701 5701 5701 5701 5700 5700 5700 5700 5699 5699 5698 5698 5697 5697 5696 5696 5696 5695 5695 5695 5694 5694 5693 5692 5692 5691 5691 5690 5689 5689 5688 5688 5687 5687 5686 5686 5686 5686 5686 5685 5685 5684 5684 5684 5683 5683 5682 5682 5681 5681 5681 5680 5679 5679 5678 5678
5699 5700 5700 5700 5700 5700 5700 5700 5700 5699 5699 5699 5699 5699 5698 5698 5698 5698 5697 5697 5697 5696 5696 5696 5695 5694 5694 5693 5693 5692 5692 5691 5691 5691 5690 5689 5689 5688 5688 5687 5686 5686 5685 5685 5684 5684 5683 5683 5682 5682 5682 5681 5681 5681 5680 5680 5679 5679 5679 5678 5678 5677 5677 5676 5676 5675 5675 5674 5674
5698 5698 5698 5698 5698 5698 5698 5698 5697 5697 5697 5697 5696 5696 5696 5696 5695 5695 5695 5694 5694 5693 5693 5692 5692 5691 5691 5690 5690 5689 5689 5688 5688 5687 5686 5686 5685 5684 5684 5683 5683 5682 5681 5681 5680 5679 5679 5678 5678 5678 5677 5677 5676 5676 5676 5675 5675 5675 5674 5674 5674 5673 5672 5672 5671 5671 5671 5670 5670
5696 5696 5696 5696 5696 5696 5696 5695 5695 5695 5695 5694 5694 5693 5693 5692 5692 5692 5691 5691 5691 5690 5690 5689 5688 5688 5687 5687 5686 5686 5685 5684 5684 5683 5682 5681 5681 5680 5680 5679 5678 5677 5676 5676 5675 5675 5674 5674 5673 5673 5673 5672 5672 5671 5671 5671 5670 5670 5670 5669 5669 5669 5668 5668 5667 5667 5667 5666 5666
5694 5694 5694 5694 5693 5693 5693 5693 5692 5692 5692 5691 5691 5690 5690 5689 5689 5689 5688 5688 5687 5687 5686 5686 5685 5685 5684 5683 5682 5682 5681 5680 5680 5679 5678 5677 5676 5676 5675 5674 5673 5672 5672 5671 5671 5670 5669 5669 5669 5668 5668 5668 5668 5667 5667 5666 5666 5666 5665 5665 5665 5665 5664 5664 5663 5663 5663 5662 5662
5692 5692 5691 5691 5691 5691 5690 5690 5690 5689 5689 5688 5688 5687 5686 5686 5686 5685 5685 5684 5684 5683 5683 5682 5681 5681 5680 5680 5679 5678 5677 5676 5675 5674 5674 5673 5672 5671 5670 5669 5669 5668 5667 5666 5666 5666 5665 5665 5664 5664 5664 5664 5663 5663 5663 5662 5662 5661 5661 5661 5661 5660 5660 5660 5659 5659 5659 5658 5658
5690 5689 5689 5689 5688 5688 5687 5687 5686 5686 5686 5685 5684 5684 5683 5683 5682 5682 5681 5681 5680 5680 5679 5679 5678 5677 5676 5676 5675 5674 5673 5672 5671 5670 5669 5668 5667 5666 5666 5665 5664 5664 5663 5662 5662 5661 5661 5661 5660 5660 5659 5659 5659 5659 5659 5658 5658 5657 5657 5656 5656 5656 5655 5655 5655 5654 5654 5654 5653
5687 5686 5686 5686 5685 5685 5685 5684 5683 5683 5682 5682 5681 5681 5680 5679 5679 5678 5677 5677 5676 5676 5675 5675 5674 5673 5672 5671 5670 5669 5668 5667 5666 5666 5665 5664 5663 5662 5661 5661 5661 5660 5659 5658 5658 5657 5657 5656 5656 5656 5655 5655 5655 5655 5654 5654 5653 5653 5652 5652 5651 5651 5651 5650 5650 5650 5649 5649 5649
5684 5684 5683 5683 5682 5682 5681 5681 5680 5680 5679 5679 5678 5677 5676 5676 5675 5675 5674 5673 5672 5672 5671 5671 5670 5669 5668 5667 5666 5665 5664 5663 5663 5662 5661 5660 5660 5659 5658 5657 5657 5656 5655 5655 5654 5653 5653 5652 5652 5651 5651 5651 5650 5650 5650 5649 5649 5648 5648 5647 5647 5646 5646 5646 5645 5645 5644 5644 5644
5681 5681 5680 5680 5679 5679 5678 5678 5677 5676 5676 5675 5675 5674 5673 5672 5672 5671 5670 5670 5669 5668 5667 5666 5666 5665 5664 5663 5662 5661 5661 5660 5659 5658 5657 5656 5656 5655 5654 5653 5653 5652 5651 5651 5650 5649 5648 5648 5647 5647 5646 5646 5646 5645 5645 5645 5644 5644 5643 5643 5642 5642 5641 5641 5640 5640 5639 5639 5638
5678 5678 5677 5677 5676 5676 5675 5675 5674 5673 5673 5672 5671 5671 5670 5669 5668 5668 5667 5666 5666 5665 5664 5663 5662 5661 5661 5660 5659 5658 5657 5656 5655 5654 5653 5652 5652 5651 5650 5649 5649 5648 5647 5646 5645 5645 5644 5643 5642 5642 5641 5641 5641 5640 5640 5640 5639 5639 5638 5638 5637 5637 5636 5636 5635 5634 5634 5633 5633
5676 5675 5675 5674 5673 5673 5672 5672 5671 5671 5670 5669 5668 5668 5667 5666 5666 5665 5664 5663 5662 5661 5661 5660 5659 5658 5657 5656 5655 5654 5653 5652 5651 5651 5650 5649 5648 5646 5646 5645 5644 5643 5642 5641 5641 5640 5639 5638 5638 5637 5636 5636 5635 5635 5634 5634 5634 5633 5633 5632 5632 5631 5631 5630 5629 5629 5628 5627 5627
5673 5672 5672 5671 5671 5670 5670 5669 5668 5668 5667 5666 5666 5665 5664 5663 5662 5661 5661 5660 5659 5658 5657 5656 5655 5654 5653 5652 5651 5650 5649 5648 5647 5646 5646 5645 5643 5642 5641 5640 5639 5638 5637 5636 5635 5634 5633 5633 5632 5631 5631 5631 5630 5630 5629 5628 5628 5628 5627 5627 5626 5626 5625 5625 5624 5623 5622 5621 5621
5670 5670 5669 5669 5668 5667 5667 5666 5666 5665 5664 5663 5662 5661 5661 5660 5659 5658 5657 5656 5655 5654 5653 5652 5651 5650 5649 5648 5647 5646 5645 5644 5643 5642 5641 5640 5639 5638 5637 5636 5634 5633 5632 5631 5630 5629 5628 5627 5626 5626 5625 5625 5624 5624 5623 5623 5622 5622 5621 5621 5621 5620 5620 5619 5618 5617 5616 5616 5615
5668 5667 5666 5666 5665 5665 5664 5663 5662 5661 5661 5660 5659 5658 5657 5656 5655 5654 5653 5652 5651 5650 5649 5648 5647 5646 5645 5644 5643 5642 5641 5640 5639 5638 5637 5636 5635 5633 5632 5631 5630 5628 5627 5626 5625 5623 5622 5621 5620 5619 5619 5618 5618 5618 5617 5617 5616 5616 5615 5615 5614 5614 5613 5613 5612 5611 5611 5610 5609
5665 5664 5664 5663 5662 5661 5661 5660 5659 5658 5657 5656 5655 5654 5653 5652 5651 5650 5649 5648 5647 5646 5645 5644 5643 5642 5641 5640 5639 5637 5636 5635 5634 5633 5632 5631 5630 5629 5627 5626 5625 5623 5622 5621 5619 5618 5617 5616 5614 5613 5612 5612 5611 5611 5611 5611 5610 5610 5609 5609 5608 5607 5607 5606 5606 5605 5604 5603 5603
5662 5661 5660 5659 5659 5658 5657 5656 5655 5654 5653 5652 5651 5650 5649 5648 5647 5646 5645 5644 5643 5642 5641 5640 5639 5637 5636 5635 5634 5633 5632 5631 5629 5628 5627 5626 5625 5624 5622 5621 5620 5618 5616 5615 5614 5612 5611 5610 5609 5607 5606 5606 5605 5605 5605 5604 5604 5604 5603 5602 5602 5601 5600 5600 5599 5598 5598 5597 5596
5658 5657 5656 5656 5655 5654 5653 5652 5651 5650 5649 5648 5647 5646 5645 5644 5643 5642 5641 5640 5639 5637 5636 5635 5634 5633 5631 5630 5629 5628 5627 5625 5624 5623 5622 5621 5619 5618 5617 5616 5614 5612 5611 5609 5608 5606 5605 5604 5603 5601 5600 5599 5598 5598 5598 5598 5597 5597 5596 5596 5595 5595 5594 5593 5592 5592 5591 5591 5590
5655 5654 5653 5652 5651 5650 5649 5648 5647 5646 5645 5644 5643 5642 5641 5640 5638 5637 5636 5635 5634 5633 5631 5630 5629 5628 5626 5625 5624 5623 5621 5620 5619 5617 5616 5615 5614 5612 5611 5610 5608 5606 5605 5603 5601 5600 5599 5597 5596 5595 5594 5592 5591 5591 5591 5591 5591 5590 5590 5590 5589 5588 5587 5586 5586 5585 5585 5584 5584
5651 5650 5649 5648 5647 5646 5645 5644 5643 5642 5641 5640 5638 5637 5636 5635 5634 5633 5631 5630 5629 5628 5626 5625 5624 5623 5621 5620 5619 5617 5616 5615 5613 5612 5610 5609 5608 5606 5605 5604 5602 5600 5598 5596 5595 5593 5592 5591 5589 5588 5587 5586 5585 5584 5584 5583 5583 5583 5583 5582 5582 5581 5580 5579 5579 5578 5577 5577 5576
5647 5646 5646 5644 5643 5642 5641 5640 5639 5638 5636 5635 5634 5633 5632 5631 5629 5628 5626 5625 5624 5623 5621 5620 5619 5617 5616 5615 5613 5612 5611 5609 5607 5606 5604 5603 5602 5600 5599 5598 5596 5594 5592 5590 5588 5586 5585 5584 5582 5581 5580 5579 5577 5577 5576 5576 5576 5575 5575 5575 5574 5574 5573 5572 5571 5571 5570 5570 5569
5644 5643 5642 5641 5640 5638 5637 5636 5635 5633 5632 5631 5630 5628 5627 5626 5624 5623 5622 5620 5619 5617 5616 5615 5613 5612 5610 5609 5608 5606 5605 5603 5602 5600 5598 5596 5595 5594 5593 5591 5590 5587 5585 5583 5581 5580 5578 5576 5575 5574 5572 5571 5570 5570 5569 5568 5568 5567 5567 5567 5567 5566 5566 5565 5564 5563 5563 5562 5562
5640 5639 5638 5637 5636 5634 5633 5632 5631 5629 5628 5626 5625 5624 5622 5621 5619 5618 5616 5615 5614 5612 5611 5609 5607 5606 5604 5603 5601 5600 5598 5597 5595 5594 5592 5590 5588 5587 5586 5585 5583 5581 5578 5576 5574 5572 5571 5569 5567 5566 5565 5563 5562 5562 5561 5561 5560 5560 5560 5559 5559 5558 5558 5557 5556 5556 5555 5555 5554
5636 5635 5634 5633 5631 5630 5629 5627 5626 5625 5623 5622 5621 5619 5617 5616 5614 5613 5611 5610 5608 5607 5605 5603 5602 5600 5598 5596 5595 5593 5592 5590 5588 5587 5585 5583 5581 5580 5579 5578 5576 5574 5571 5569 5566 5564 5563 5561 5560 5558 5556 5555 5554 5554 5553 5553 5552 5552 5552 5551 5551 5551 5550 5549 5549 5548 5547 5547 5547
5632 5631 5630 5629 5627 5626 5625 5623 5622 5620 5619 5617 5616 5614 5612 5611 5609 5607 5606 5604 5602 5601 5600 5598 5596 5594 5592 5590 5589 5587 5585 5583 5581 5579 5577 5576 5574 5572 5571 5570 5569 5567 5564 5561 5559 5556 5555 5553 5551 5549 5548 5546 5546 5545 5545 5544 5544 5544 5543 5543 5543 5542 5542 5541 5541 5540 5540 5540 5539
5628 5627 5626 5624 5623 5621 5620 5619 5617 5616 5614 5612 5611 5609 5607 5606 5604 5602 5600 5598 5596 5595 5594 5592 5590 5588 5586 5584 5582 5580 5578 5576 5574 5572 5570 5568 5567 5565 5563 5562 5561 5559 5557 5554 5551 5548 5546 5545 5543 5541 5539 5537 5536 5536 5536 5535 5535 5535 5535 5535 5534 5534 5533 5533 5532 5532 5532 5532 5531
5624 5623 5621 5620 5619 5617 5616 5614 5612 5611 5609 5608 5606 5604 5602 5600 5598 5596 5595 5593 5591 5589 5587 5586 5584 5582 5580 5578 5576 5574 5572 5570 5567 5565 5562 5561 5559 5557 5556 5554 5553 5551 5549 5546 5543 5541 5538 5536 5534 5532 5530 5528 5527 5526 5526 5526 5526 5526 5526 5525 5525 5525 5524 5524 5524 5523 5524 5524 5523
5620 5618 5617 5616 5614 5613 5611 5610 5608 5606 5604 5602 5601 5599 5597 5595 5593 5591 5589 5587 5585 5583 5581 5579 5577 5575 5573 5571 5569 5567 5565 5563 5561 5558 5555 5553 5551 5549 5547 5546 5544 5542 5541 5538 5536 5532 5530 5528 5526 5523 5521 5519 5517 5516 5516 5516 5516 5516 5516 5516 5515 5515 5515 5515 5514 5514 5515 5515 5515
5616 5615 5613 5611 5610 5608 5607 5605 5603 5601 5599 5597 5595 5593 5591 5589 5587 5585 5583 5581 5579 5576 5574 5572 5571 5568 5566 5564 5561 5560 5558 5556 5554 5551 5548 5546 5543 5541 5539 5537 5536 5534 5532 5530 5527 5525 5521 5519 5517 5515 5512 5510 5508 5506 5505 5505 5505 5505 5505 5505 5505 5505 5504 5504 5505 5505 5505 5506 5506